TimeEST,TemperatureF,Dew PointF,Humidity,Sea Level PressureIn,VisibilityMPH,Wind Direction,Wind SpeedMPH,Gust SpeedMPH,PrecipitationIn,Events,Conditions,WindDirDegrees,DateUTC
12:51 AM,32.0,23.0,69,29.94,10.0,WSW,5.8,-,N/A,,Clear,240,2013-02-13 05:51:00
1:51 AM,33.1,23.0,66,29.96,10.0,West,6.9,-,N/A,,Partly Cloudy,260,2013-02-13 06:51:00
2:51 AM,30.9,23.0,72,29.96,10.0,Calm,Calm,-,N/A,,Scattered Clouds,0,2013-02-13 07:51:00
3:51 AM,30.9,23.0,72,29.94,10.0,West,3.5,-,N/A,,Scattered Clouds,270,2013-02-13 08:51:00
4:51 AM,30.9,23.0,72,29.91,10.0,NW,4.6,-,N/A,,Scattered Clouds,310,2013-02-13 09:51:00
5:51 AM,32.0,23.0,69,29.92,10.0,WSW,5.8,-,N/A,,Scattered Clouds,250,2013-02-13 10:51:00
6:51 AM,30.0,23.0,75,29.92,10.0,WSW,3.5,-,N/A,,Partly Cloudy,240,2013-02-13 11:51:00
7:51 AM,34.0,25.0,70,29.92,10.0,Calm,Calm,-,N/A,,Partly Cloudy,0,2013-02-13 12:51:00
8:51 AM,37.0,24.1,59,29.90,10.0,North,4.6,-,N/A,,Scattered Clouds,10,2013-02-13 13:51:00
9:51 AM,39.0,21.9,50,29.89,10.0,NNE,5.8,-,N/A,,Scattered Clouds,20,2013-02-13 14:51:00
10:51 AM,39.0,21.9,50,29.91,10.0,SE,4.6,-,N/A,,Mostly Cloudy,140,2013-02-13 15:51:00
11:51 AM,42.1,24.1,49,29.88,10.0,Variable,4.6,-,N/A,,Mostly Cloudy,0,2013-02-13 16:51:00
12:51 PM,41.0,24.1,51,29.83,10.0,Calm,Calm,-,N/A,,Mostly Cloudy,0,2013-02-13 17:51:00
1:51 PM,43.0,24.1,47,29.78,10.0,East,4.6,-,N/A,,Scattered Clouds,90,2013-02-13 18:51:00
2:51 PM,42.1,24.1,49,29.77,10.0,NE,4.6,-,N/A,,Mostly Cloudy,50,2013-02-13 19:51:00
3:51 PM,42.1,26.1,53,29.75,10.0,SSE,5.8,-,N/A,,Mostly Cloudy,160,2013-02-13 20:51:00
4:51 PM,46.0,26.1,46,29.72,10.0,Calm,Calm,-,N/A,,Mostly Cloudy,0,2013-02-13 21:51:00
5:51 PM,52.0,27.0,38,29.70,10.0,East,3.5,-,N/A,,Overcast,80,2013-02-13 22:51:00
6:51 PM,46.0,28.0,50,29.71,10.0,Calm,Calm,-,N/A,,Overcast,0,2013-02-13 23:51:00
7:51 PM,45.7,28.9,52,29.70,10.0,Calm,Calm,-,0.00,Rain,Light Rain,0,2013-02-14 00:51:00
8:51 PM,41.2,28.9,62,29.71,10.0,Variable,3.5,-,0.01,Rain,Light Rain,0,2013-02-14 01:51:00
9:51 PM,38.8,28.9,68,29.70,10.0,NNW,8.1,-,0.00,Rain,Light Rain,330,2013-02-14 02:51:00
10:11 PM,37.4,28.4,70,29.71,9.0,NNW,11.5,-,0.00,Rain-Snow,Light Rain,340,2013-02-14 03:11:00
10:44 PM,37.4,28.4,70,29.71,7.0,North,11.5,-,0.00,Rain-Snow,Light Rain,360,2013-02-14 03:44:00
10:51 PM,36.5,28.9,74,29.71,7.0,North,12.7,-,0.00,Rain-Snow,Light Rain,10,2013-02-14 03:51:00
11:32 PM,35.6,32.0,87,29.71,4.0,North,11.5,-,0.02,Rain-Snow,Light Snow,10,2013-02-14 04:32:00
11:51 PM,35.1,29.8,81,29.72,4.0,North,11.5,-,0.02,Rain-Snow,Light Rain,10,2013-02-14 04:51:00